Content
SEND FEEDBACK

Daily
Averages
Monthly
Summary
United States of America

ST. LOUIS, MISSOURI


Home > North America > United States > Missouri
Elevation: 163 meters     Latitude: 38 45N     Longitude: 090 22W

WEATHER
 
SELECT A DAY
Number of Records: 196,649;   Date Range: 1/1/95 - 9/18/14
 
SHARE

PRINT THIS DATA

[ ← Previous Day ]
WEATHER ALMANAC - 25 FEBRUARY, 2013
[ Next Day → ]
[ °F ]   °C
Weather ElementAverageHighLow
Temperature2.7 °C7.2 °C (10:54 am)-4.4 °C (6:54 am)
Dewpoint-2.4 °C0 °C (11:54 pm)-6.1 °C (6:54 am)
Humidity70.9 %89 % (7:54 am)49 % (10:54 am)
Barometer1012.9 hPa1019 hPa (1:54 am)1003.4 hPa (11:54 pm)
Wind Speed15.6 km/h31.5 km/h (2:54 pm)
Wind Gust44.4 km/h (9:54 pm)
Weather ElementAverage
Visibility12.7 km
Wind DirectionNE (43.8 °)

Weather ElementTotal
Precipitation4.57 mm
Heating Degree Days16.9 (Base 18.3)
Averaged from 24 records on 25 February, 2013
WEATHER CONDITIONS BREAKOUT
WIND DIRECTION BREAKOUT
WEATHER BY HOUR - 25 FEBRUARY, 2013
[ °F ]   °C
Local TimeTemperatureDewpointHumidityBarometerVisibilityWind DirectionWind SpeedGust SpeedPrecipitationEventsConditions
1:54 AM-2.8 °C-5 °C85 %1019 hPa9.7 kmCalmClear
2:54 AM-1.7 °C-3.9 °C85 %1018.3 hPa11.3 kmENE (70°)5.6 km/hClear
3:54 AM-2.8 °C-5 °C85 %1017.6 hPa9.7 kmCalmClear
4:54 AM-2.8 °C-5 °C85 %1017.9 hPa9.7 kmCalmClear
5:54 AM-3.3 °C-5.6 °C84 %1016.6 hPa8 kmCalmClear
6:54 AM-4.4 °C-6.1 °C88 %1017.3 hPa8 kmCalmMostly Cloudy
7:54 AM-1.7 °C-3.3 °C89 %1017.3 hPa8 kmCalmClear
8:54 AM2.8 °C-2.8 °C67 %1016.9 hPa12.9 kmENE (70°)14.8 km/hClear
9:54 AM6.1 °C-3.3 °C51 %1016.6 hPa16.1 kmEast (100°)9.3 km/hClear
10:54 AM7.2 °C-2.8 °C49 %1016.3 hPa16.1 kmEast (90°)16.7 km/h33.3 km/hMostly Cloudy
11:54 AM7.2 °C-2.2 °C52 %1015.6 hPa16.1 kmEast (90°)20.4 km/h31.5 km/hOvercast
12:54 PM7.2 °C-1.7 °C53 %1014.2 hPa16.1 kmENE (60°)22.2 km/hOvercast
1:54 PM7.2 °C-1.1 °C56 %1011.9 hPa16.1 kmENE (70°)27.8 km/h38.9 km/hClear
2:54 PM6.7 °C-1.7 °C55 %1010.5 hPa16.1 kmENE (60°)31.5 km/h40.7 km/hMostly Cloudy
3:54 PM6.7 °C-1.7 °C55 %1010.5 hPa16.1 kmENE (60°)27.8 km/hOvercast
4:54 PM5.6 °C-1.1 °C62 %1009.5 hPa16.1 kmNE (40°)18.5 km/hOvercast
5:54 PM4.4 °C-1.7 °C65 %1008.8 hPa16.1 kmNE (40°)24.1 km/h35.2 km/hOvercast
6:54 PM4.4 °C-0.6 °C70 %1010.5 hPa16.1 kmNE (40°)16.7 km/hOvercast
7:54 PM4.4 °C-0.6 °C70 %1010.8 hPa16.1 kmNNE (30°)16.7 km/hOvercast
8:54 PM3.9 °C-1.1 °C70 %1009.5 hPa16.1 kmNE (40°)14.8 km/h33.3 km/h0 mmOvercast
9:38 PM3 °C-1 °C75 %1006.8 hPa16.1 kmNE (50°)27.8 km/h37 km/h0 mmRainLight Rain
9:54 PM2.2 °C-1.1 °C79 %1007.1 hPa4 kmNE (40°)29.6 km/h44.4 km/h0.76 mmSnowLight Snow
10:54 PM1.7 °C-0.6 °C85 %1005.8 hPa8 kmNE (50°)22.2 km/h40.7 km/h1.52 mmRainLight Rain
11:54 PM2.2 °C0 °C86 %1003.4 hPa8 kmNE (50°)27.8 km/h2.29 mmRainLight Rain
Hourly data recorded from KSUS, located 0 kilometers away from St. Louis, Missouri







STORIES FROM OUR PARTNERS